Time,TemperatureF,DewpointF,PressureIn,WindDirection,WindDirectionDegrees,WindSpeedMPH,WindSpeedGustMPH,Humidity,HourlyPrecipIn,Conditions,Clouds,dailyrainin,SolarRadiationWatts/m^2,SoftwareType,DateUTC
2013-02-06 00:02:00,34.0,33.0,-100.00,SE,131,2.0,6.0,95,0.00,,,0.44,0.000000,,2013-02-06 05:02:00,
2013-02-06 00:12:00,34.0,33.0,-100.00,SE,131,2.0,6.0,95,0.00,,,0.44,0.000000,,2013-02-06 05:12:00,
2013-02-06 00:42:00,34.0,33.0,-100.00,SW,233,2.0,5.0,97,0.00,,,0.44,0.000000,,2013-02-06 05:42:00,
2013-02-06 00:53:00,34.0,33.0,-100.00,SW,233,2.0,5.0,97,0.00,,,0.44,0.000000,,2013-02-06 05:53:00,
2013-02-06 01:01:00,34.0,33.0,-100.00,SW,233,2.0,5.0,97,0.00,,,0.44,0.000000,,2013-02-06 06:01:00,
2013-02-06 01:11:00,34.0,33.0,-100.00,SW,233,2.0,5.0,97,0.00,,,0.44,0.000000,,2013-02-06 06:11:00,
2013-02-06 01:32:00,37.0,32.0,-100.00,NW,306,8.0,17.0,82,0.01,,,0.40,0.000000,,2013-02-06 06:32:00,
2013-02-06 01:42:00,37.0,32.0,-100.00,NW,306,8.0,17.0,82,0.01,,,0.40,0.000000,,2013-02-06 06:42:00,
2013-02-06 01:52:00,37.0,32.0,-100.00,NW,306,8.0,17.0,82,0.01,,,0.40,0.000000,,2013-02-06 06:52:00,
2013-02-06 02:02:00,37.0,32.0,-100.00,NW,306,8.0,17.0,82,0.01,,,0.40,0.000000,,2013-02-06 07:02:00,
2013-02-06 02:11:00,37.0,32.0,-100.00,NW,306,8.0,17.0,82,0.01,,,0.40,0.000000,,2013-02-06 07:11:00,
2013-02-06 02:32:00,35.0,29.0,-100.00,WNW,288,7.0,15.0,80,0.00,,,0.32,0.000000,,2013-02-06 07:32:00,
2013-02-06 02:42:00,35.0,29.0,-100.00,WNW,288,7.0,15.0,80,0.00,,,0.32,0.000000,,2013-02-06 07:42:00,
2013-02-06 02:52:00,35.0,29.0,-100.00,WNW,288,7.0,15.0,80,0.00,,,0.32,0.000000,,2013-02-06 07:52:00,
2013-02-06 03:01:00,35.0,29.0,-100.00,WNW,288,7.0,15.0,80,0.00,,,0.32,0.000000,,2013-02-06 08:01:00,
2013-02-06 03:11:00,35.0,29.0,-100.00,WNW,288,7.0,15.0,80,0.00,,,0.32,0.000000,,2013-02-06 08:11:00,
2013-02-06 03:42:00,35.0,30.0,-100.00,West,277,5.0,10.0,81,0.00,,,0.27,0.000000,,2013-02-06 08:42:00,
2013-02-06 03:53:00,35.0,30.0,-100.00,West,277,5.0,10.0,81,0.00,,,0.27,0.000000,,2013-02-06 08:53:00,
2013-02-06 04:02:00,35.0,30.0,-100.00,West,277,5.0,10.0,81,0.00,,,0.27,0.000000,,2013-02-06 09:02:00,
2013-02-06 04:11:00,35.0,30.0,-100.00,West,277,5.0,10.0,81,0.00,,,0.27,0.000000,,2013-02-06 09:11:00,
2013-02-06 04:32:00,34.0,29.0,-100.00,West,281,3.0,10.0,81,0.00,,,0.24,0.000000,,2013-02-06 09:32:00,
2013-02-06 04:42:00,34.0,29.0,-100.00,West,281,3.0,10.0,81,0.00,,,0.24,0.000000,,2013-02-06 09:42:00,
2013-02-06 04:52:00,34.0,29.0,-100.00,West,281,3.0,10.0,81,0.00,,,0.24,0.000000,,2013-02-06 09:52:00,
2013-02-06 05:01:00,34.0,29.0,-100.00,West,281,3.0,10.0,81,0.00,,,0.24,0.000000,,2013-02-06 10:01:00,
2013-02-06 05:11:00,34.0,29.0,-100.00,West,281,3.0,10.0,81,0.00,,,0.24,0.000000,,2013-02-06 10:11:00,
2013-02-06 05:42:00,34.0,29.0,-100.00,West,273,4.0,6.0,81,0.00,,,0.21,0.000000,,2013-02-06 10:42:00,
2013-02-06 05:52:00,34.0,29.0,-100.00,West,273,4.0,6.0,81,0.00,,,0.21,0.000000,,2013-02-06 10:52:00,
2013-02-06 06:02:00,34.0,29.0,-100.00,West,273,4.0,6.0,81,0.00,,,0.21,0.000000,,2013-02-06 11:02:00,
2013-02-06 06:11:00,34.0,29.0,-100.00,West,273,4.0,6.0,81,0.00,,,0.21,0.000000,,2013-02-06 11:11:00,
2013-02-06 06:33:00,33.0,28.0,-100.00,WNW,291,2.0,6.0,83,0.00,,,0.19,0.000000,,2013-02-06 11:33:00,
2013-02-06 06:42:00,33.0,28.0,-100.00,WNW,291,2.0,6.0,83,0.00,,,0.19,0.000000,,2013-02-06 11:42:00,
2013-02-06 06:53:00,33.0,28.0,-100.00,WNW,291,2.0,6.0,83,0.00,,,0.19,0.000000,,2013-02-06 11:53:00,
2013-02-06 07:02:00,33.0,28.0,-100.00,WNW,291,2.0,6.0,83,0.00,,,0.19,0.000000,,2013-02-06 12:02:00,
2013-02-06 07:12:00,33.0,28.0,-100.00,WNW,291,2.0,6.0,83,0.00,,,0.19,0.000000,,2013-02-06 12:12:00,
2013-02-06 07:32:00,33.0,28.0,-100.00,North,1,2.0,6.0,83,0.00,,,0.17,0.000000,,2013-02-06 12:32:00,
2013-02-06 07:42:00,33.0,28.0,-100.00,North,1,2.0,6.0,83,0.00,,,0.17,0.000000,,2013-02-06 12:42:00,
2013-02-06 07:52:00,33.0,28.0,-100.00,North,1,2.0,6.0,83,0.00,,,0.17,0.000000,,2013-02-06 12:52:00,
2013-02-06 08:02:00,33.0,28.0,-100.00,North,1,2.0,6.0,83,0.00,,,0.17,0.000000,,2013-02-06 13:02:00,
2013-02-06 08:12:00,33.0,28.0,-100.00,North,1,2.0,6.0,83,0.00,,,0.17,0.000000,,2013-02-06 13:12:00,
2013-02-06 08:42:00,33.0,29.0,-100.00,WNW,299,2.0,5.0,85,0.00,,,0.15,3.000000,,2013-02-06 13:42:00,
2013-02-06 08:52:00,33.0,29.0,-100.00,WNW,299,2.0,5.0,85,0.00,,,0.15,3.000000,,2013-02-06 13:52:00,
2013-02-06 09:02:00,33.0,29.0,-100.00,WNW,299,2.0,5.0,85,0.00,,,0.15,3.000000,,2013-02-06 14:02:00,
2013-02-06 09:11:00,33.0,29.0,-100.00,WNW,299,2.0,5.0,85,0.00,,,0.15,3.000000,,2013-02-06 14:11:00,
2013-02-06 09:42:00,33.0,29.0,-100.00,NNW,346,2.0,4.0,85,0.00,,,0.14,28.000000,,2013-02-06 14:42:00,
2013-02-06 09:52:00,33.0,29.0,-100.00,NNW,346,2.0,4.0,85,0.00,,,0.14,28.000000,,2013-02-06 14:52:00,
2013-02-06 10:02:00,33.0,29.0,-100.00,NNW,346,2.0,4.0,85,0.00,,,0.14,28.000000,,2013-02-06 15:02:00,
2013-02-06 10:11:00,33.0,29.0,-100.00,NNW,346,2.0,4.0,85,0.00,,,0.14,28.000000,,2013-02-06 15:11:00,
2013-02-06 10:32:00,34.0,29.0,-100.00,West,261,3.0,6.0,81,0.00,,,0.12,67.000000,,2013-02-06 15:32:00,
2013-02-06 10:42:00,34.0,29.0,-100.00,West,261,3.0,6.0,81,0.00,,,0.12,67.000000,,2013-02-06 15:42:00,
2013-02-06 10:52:00,34.0,29.0,-100.00,West,261,3.0,6.0,81,0.00,,,0.12,67.000000,,2013-02-06 15:52:00,
2013-02-06 11:01:00,34.0,29.0,-100.00,West,261,3.0,6.0,81,0.00,,,0.12,67.000000,,2013-02-06 16:01:00,
2013-02-06 11:11:00,34.0,29.0,-100.00,West,261,3.0,6.0,81,0.00,,,0.12,67.000000,,2013-02-06 16:11:00,
2013-02-06 11:32:00,35.0,28.0,-100.00,West,265,3.0,7.0,75,0.00,,,0.11,119.000000,,2013-02-06 16:32:00,
2013-02-06 11:42:00,35.0,28.0,-100.00,West,265,3.0,7.0,75,0.00,,,0.11,119.000000,,2013-02-06 16:42:00,
2013-02-06 11:52:00,35.0,28.0,-100.00,West,265,3.0,7.0,75,0.00,,,0.11,119.000000,,2013-02-06 16:52:00,
2013-02-06 12:02:00,35.0,28.0,-100.00,West,265,3.0,7.0,75,0.00,,,0.11,119.000000,,2013-02-06 17:02:00,
2013-02-06 12:12:00,35.0,28.0,-100.00,West,265,3.0,7.0,75,0.00,,,0.11,119.000000,,2013-02-06 17:12:00,
2013-02-06 12:32:00,36.0,28.0,-100.00,West,266,4.0,8.0,71,0.00,,,0.10,135.000000,,2013-02-06 17:32:00,
2013-02-06 12:42:00,36.0,28.0,-100.00,West,266,4.0,8.0,71,0.00,,,0.10,135.000000,,2013-02-06 17:42:00,
2013-02-06 12:52:00,36.0,28.0,-100.00,West,266,4.0,8.0,71,0.00,,,0.10,135.000000,,2013-02-06 17:52:00,
2013-02-06 13:02:00,36.0,28.0,-100.00,West,266,4.0,8.0,71,0.00,,,0.10,135.000000,,2013-02-06 18:02:00,
2013-02-06 13:12:00,36.0,28.0,-100.00,West,266,4.0,8.0,71,0.00,,,0.10,135.000000,,2013-02-06 18:12:00,
2013-02-06 13:42:00,37.0,28.0,-100.00,WNW,291,6.0,10.0,70,0.00,,,0.09,155.000000,,2013-02-06 18:42:00,
2013-02-06 13:52:00,37.0,28.0,-100.00,WNW,291,6.0,10.0,70,0.00,,,0.09,155.000000,,2013-02-06 18:52:00,
2013-02-06 14:02:00,37.0,28.0,-100.00,WNW,291,6.0,10.0,70,0.00,,,0.09,155.000000,,2013-02-06 19:02:00,
2013-02-06 14:11:00,37.0,28.0,-100.00,WNW,291,6.0,10.0,70,0.00,,,0.09,155.000000,,2013-02-06 19:11:00,
2013-02-06 14:42:00,38.0,27.0,-100.00,West,263,4.0,9.0,65,0.00,,,0.07,223.000000,,2013-02-06 19:42:00,
2013-02-06 14:52:00,38.0,27.0,-100.00,West,263,4.0,9.0,65,0.00,,,0.07,223.000000,,2013-02-06 19:52:00,
2013-02-06 15:01:00,38.0,27.0,-100.00,West,263,4.0,9.0,65,0.00,,,0.07,223.000000,,2013-02-06 20:01:00,
2013-02-06 15:11:00,38.0,27.0,-100.00,West,263,4.0,9.0,65,0.00,,,0.07,223.000000,,2013-02-06 20:11:00,
2013-02-06 15:42:00,38.0,27.0,-100.00,WNW,299,4.0,7.0,64,0.00,,,0.07,128.000000,,2013-02-06 20:42:00,
2013-02-06 15:52:00,38.0,27.0,-100.00,WNW,299,4.0,7.0,64,0.00,,,0.07,128.000000,,2013-02-06 20:52:00,
2013-02-06 16:02:00,38.0,27.0,-100.00,WNW,299,4.0,7.0,64,0.00,,,0.07,128.000000,,2013-02-06 21:02:00,
2013-02-06 16:11:00,38.0,27.0,-100.00,WNW,299,4.0,7.0,64,0.00,,,0.07,128.000000,,2013-02-06 21:11:00,
2013-02-06 16:32:00,38.0,26.0,-100.00,West,278,4.0,7.0,61,0.00,,,0.07,134.000000,,2013-02-06 21:32:00,
2013-02-06 16:42:00,38.0,26.0,-100.00,West,278,4.0,7.0,61,0.00,,,0.07,134.000000,,2013-02-06 21:42:00,
2013-02-06 16:52:00,38.0,26.0,-100.00,West,278,4.0,7.0,61,0.00,,,0.07,134.000000,,2013-02-06 21:52:00,
2013-02-06 17:01:00,38.0,26.0,-100.00,West,278,4.0,7.0,61,0.00,,,0.07,134.000000,,2013-02-06 22:01:00,
2013-02-06 17:11:00,38.0,26.0,-100.00,West,278,4.0,7.0,61,0.00,,,0.07,134.000000,,2013-02-06 22:11:00,
2013-02-06 17:42:00,37.0,26.0,-100.00,NNE,23,2.0,7.0,64,0.00,,,0.07,92.000000,,2013-02-06 22:42:00,
2013-02-06 17:52:00,37.0,26.0,-100.00,NNE,23,2.0,7.0,64,0.00,,,0.07,92.000000,,2013-02-06 22:52:00,
2013-02-06 18:01:00,37.0,26.0,-100.00,NNE,23,2.0,7.0,64,0.00,,,0.07,92.000000,,2013-02-06 23:01:00,
2013-02-06 18:11:00,37.0,26.0,-100.00,NNE,23,2.0,7.0,64,0.00,,,0.07,92.000000,,2013-02-06 23:11:00,
2013-02-06 18:32:00,35.0,27.0,-100.00,ENE,68,4.0,6.0,72,0.00,,,0.07,7.000000,,2013-02-06 23:32:00,
2013-02-06 18:42:00,35.0,27.0,-100.00,ENE,68,4.0,6.0,72,0.00,,,0.07,7.000000,,2013-02-06 23:42:00,
2013-02-06 18:52:00,35.0,27.0,-100.00,ENE,68,4.0,6.0,72,0.00,,,0.07,7.000000,,2013-02-06 23:52:00,
2013-02-06 19:02:00,35.0,27.0,-100.00,ENE,68,4.0,6.0,72,0.00,,,0.07,7.000000,,2013-02-07 00:02:00,
2013-02-06 19:11:00,35.0,27.0,-100.00,ENE,68,4.0,6.0,72,0.00,,,0.07,7.000000,,2013-02-07 00:11:00,
2013-02-06 19:42:00,29.0,25.0,-100.00,ENE,72,2.0,5.0,86,0.00,,,0.07,0.000000,,2013-02-07 00:42:00,
2013-02-06 19:52:00,29.0,25.0,-100.00,ENE,72,2.0,5.0,86,0.00,,,0.07,0.000000,,2013-02-07 00:52:00,
2013-02-06 20:01:00,29.0,25.0,-100.00,ENE,72,2.0,5.0,86,0.00,,,0.07,0.000000,,2013-02-07 01:01:00,
2013-02-06 20:11:00,29.0,25.0,-100.00,ENE,72,2.0,5.0,86,0.00,,,0.07,0.000000,,2013-02-07 01:11:00,
2013-02-06 20:42:00,27.0,24.0,-100.00,East,87,2.0,4.0,89,0.00,,,0.07,0.000000,,2013-02-07 01:42:00,
2013-02-06 20:52:00,27.0,24.0,-100.00,East,87,2.0,4.0,89,0.00,,,0.07,0.000000,,2013-02-07 01:52:00,
2013-02-06 21:02:00,27.0,24.0,-100.00,East,87,2.0,4.0,89,0.00,,,0.07,0.000000,,2013-02-07 02:02:00,
2013-02-06 21:12:00,27.0,24.0,-100.00,East,87,2.0,4.0,89,0.00,,,0.07,0.000000,,2013-02-07 02:12:00,
2013-02-06 22:02:00,26.0,23.0,-100.00,East,100,2.0,5.0,90,0.00,,,-99.99,0.000000,,2013-02-07 03:02:00,
2013-02-06 22:11:00,26.0,23.0,-100.00,East,100,2.0,5.0,90,0.00,,,-99.99,0.000000,,2013-02-07 03:11:00,
2013-02-06 22:32:00,28.0,26.0,-100.00,East,86,3.0,6.0,91,0.00,,,0.01,0.000000,,2013-02-07 03:32:00,
2013-02-06 22:42:00,28.0,26.0,-100.00,East,86,3.0,6.0,91,0.00,,,0.01,0.000000,,2013-02-07 03:42:00,
2013-02-06 22:52:00,28.0,26.0,-100.00,East,86,3.0,6.0,91,0.00,,,0.01,0.000000,,2013-02-07 03:52:00,
2013-02-06 23:01:00,28.0,26.0,-100.00,East,86,3.0,6.0,91,0.00,,,0.01,0.000000,,2013-02-07 04:01:00,
2013-02-06 23:11:00,28.0,26.0,-100.00,East,86,3.0,6.0,91,0.00,,,0.01,0.000000,,2013-02-07 04:11:00,
2013-02-06 23:32:00,25.0,23.0,-100.00,East,79,2.0,5.0,91,0.00,,,0.01,0.000000,,2013-02-07 04:32:00,
2013-02-06 23:42:00,25.0,23.0,-100.00,East,79,2.0,5.0,91,0.00,,,0.01,0.000000,,2013-02-07 04:42:00,
2013-02-06 23:53:00,25.0,23.0,-100.00,East,79,2.0,5.0,91,0.00,,,0.01,0.000000,,2013-02-07 04:53:00,